STARLINK-11500, 62472

Orbit data source: Space-Track

STARLINK-11500, 62472 is a payload satellite owned by SpaceX/Seattle (US) in LEO that was launched on Tue, 31 Dec 2024 UTC via an FALCON 9 launch vehicle from the Air Force Eastern Test Range (AFETR). Payload-class satellites include a variety of spacecraft equipped with specific instruments for various scientific and technological missions. These include communications satellites like Starlink; space stations such as the ISS; scientific satellites like the Hubble; Earth observation satellites from companies like Planet Labs, Umbra, and HawkEye 360; GPS; miniature CubeSats for education and research; and military/defense satellites.

Loading next visibility...
Identifier
62472, 2024-254L
Orbit
LEO
Country
Flag of USUS
Related business
Manufacturer
SpaceX/Seattle
Mission
Operational Commercial Communications
Bus & Motor
STARLINK V2MD, Unknown motor
Mass
960 kg wet, ~910 kg dry
Launch date (UTC)
2024-12-31 (1 year ago)
Launch vehicle
FALCON 9
Launch site
Air Force Eastern Test Range (AFETR)
Object type
Payload
Rocket body
Debris
Shape & HBR
Box + 2 Pan, 18.1 m
Radar Cross Section
36.964 m², Large (>1 m²)

Expand to show TLE details & history
Last TLE update: 1 day ago

TLE from 1 day ago
0 STARLINK-11500
1 62472U 24254L   26170.48164335  .00194068  00000-0  14776-2 0  9993
2 62472  42.9996 329.1258 0001904 260.0960  99.9693 15.70892207 84883
Epoch: 2026-06-19T11:33Z
TLE epoch observation values (Epoch: 2026-06-19T11:33:33.985Z)
Latitude
-0°
Longitude
-111.9758°
Altitude
356.339 km
Speed
7.697 km/s
True Right ascension
21h 56m 30s
True Declination
0° 00' 00"
Sunlit
Object was in full shadow at epoch
Visualization orbit readout
Latitude
Unknown
Longitude
Unknown
Altitude
Unknown
Speed
Unknown
Apparent Right ascension
Unknown
Apparent Declination
Unknown
Sunlit
N/A
Visualization observer readout
Local Sidereal Time
07:24:39
Azimuth
Unknown
Elevation
Unknown
Doppler factor
Unknown
Orbital elements
Apogee altitude
359.61 km
Perigee altitude
357.045 km
Semi-major axis
6,736.465 km
Eccentricity
0.00019
Inclination
42.9996°
RAAN
329.1258°
Arg. of periapsis
260.096°
True anomaly
99.99079°
Mean anomaly
99.9693°
Eccentric anomaly
99.98004°
Mean motion
3.9255 °/min
Orbital period
91.71 mins
BSTAR
0.0014776
Loading maneuver chart data...
Computing Atmospheric mass density...
Loading historical data...
Loading historical data...
Loading historical data...
Loading historical data...
Loading historical data...
Loading historical data...
Loading historical data...

Documentation

Showing up to 5 results
|